Year,Month,Day,Hour,Minute,Value (Times are PST for temperature in C)
2009,09,16,00,00,15.70
2009,09,16,00,01,15.70
2009,09,16,00,02,15.70
2009,09,16,00,03,15.70
2009,09,16,00,04,15.70
2009,09,16,00,05,15.70
2009,09,16,00,06,15.70
2009,09,16,00,07,15.70
2009,09,16,00,08,15.60
2009,09,16,00,09,15.60
2009,09,16,00,10,15.60
2009,09,16,00,11,15.60
2009,09,16,00,12,15.60
2009,09,16,00,13,15.60
2009,09,16,00,14,15.60
2009,09,16,00,15,15.60
2009,09,16,00,16,15.60
2009,09,16,00,17,15.60
2009,09,16,00,18,15.60
2009,09,16,00,19,15.60
2009,09,16,00,20,15.50
2009,09,16,00,21,15.60
2009,09,16,00,22,15.50
2009,09,16,00,23,15.50
2009,09,16,00,24,15.50
2009,09,16,00,25,15.50
2009,09,16,00,26,15.50
2009,09,16,00,27,15.50
2009,09,16,00,28,15.50
2009,09,16,00,29,15.40
2009,09,16,00,30,15.50
2009,09,16,00,31,15.40
2009,09,16,00,32,15.40
2009,09,16,00,33,15.40
2009,09,16,00,34,15.40
2009,09,16,00,35,15.40
2009,09,16,00,36,15.40
2009,09,16,00,37,15.40
2009,09,16,00,38,15.40
2009,09,16,00,39,15.40
2009,09,16,00,40,15.40
2009,09,16,00,41,15.40
2009,09,16,00,42,15.40
2009,09,16,00,43,15.40
2009,09,16,00,44,15.40
2009,09,16,00,45,15.40
2009,09,16,00,46,15.40
2009,09,16,00,47,15.30
2009,09,16,00,48,15.40
2009,09,16,00,49,15.30
2009,09,16,00,50,15.30
2009,09,16,00,51,15.30
2009,09,16,00,52,15.30
2009,09,16,00,53,15.30
2009,09,16,00,54,15.30
2009,09,16,00,55,15.30
2009,09,16,00,56,15.30
2009,09,16,00,57,15.30
2009,09,16,00,58,15.30
2009,09,16,00,59,15.30
2009,09,16,01,00,15.30
2009,09,16,01,01,15.30
2009,09,16,01,02,15.20
2009,09,16,01,03,15.20
2009,09,16,01,04,15.20
2009,09,16,01,05,15.20
2009,09,16,01,06,15.20
2009,09,16,01,07,15.20
2009,09,16,01,08,15.20
2009,09,16,01,09,15.20
2009,09,16,01,10,15.20
2009,09,16,01,11,15.20
2009,09,16,01,12,15.10
2009,09,16,01,13,15.20
2009,09,16,01,14,15.10
2009,09,16,01,15,15.10
2009,09,16,01,16,15.10
2009,09,16,01,17,15.10
2009,09,16,01,18,15.10
2009,09,16,01,19,15.10
2009,09,16,01,20,15.10
2009,09,16,01,21,15.10
2009,09,16,01,22,15.10
2009,09,16,01,23,15.10
2009,09,16,01,24,15.00
2009,09,16,01,25,15.00
2009,09,16,01,26,15.00
2009,09,16,01,27,15.00
2009,09,16,01,28,15.00
2009,09,16,01,29,15.00
2009,09,16,01,30,15.00
2009,09,16,01,31,15.00
2009,09,16,01,32,15.00
2009,09,16,01,33,15.00
2009,09,16,01,34,15.00
2009,09,16,01,35,15.00
2009,09,16,01,36,15.00
2009,09,16,01,37,15.00
2009,09,16,01,38,15.00
2009,09,16,01,39,15.00
2009,09,16,01,40,15.00
2009,09,16,01,41,15.00
2009,09,16,01,42,15.00
2009,09,16,01,43,15.00
2009,09,16,01,44,15.00
2009,09,16,01,45,15.00
2009,09,16,01,46,15.00
2009,09,16,01,47,15.00
2009,09,16,01,48,15.10
2009,09,16,01,49,15.10
2009,09,16,01,50,15.10
2009,09,16,01,51,15.10
2009,09,16,01,52,15.10
2009,09,16,01,53,15.10
2009,09,16,01,54,15.20
2009,09,16,01,55,15.20
2009,09,16,01,56,15.20
2009,09,16,01,57,15.20
2009,09,16,01,58,15.20
2009,09,16,01,59,15.20
2009,09,16,02,01,15.20
2009,09,16,02,02,15.20
2009,09,16,02,03,15.20
2009,09,16,02,04,15.20
2009,09,16,02,05,15.20
2009,09,16,02,06,15.20
2009,09,16,02,07,15.20
2009,09,16,02,08,15.20
2009,09,16,02,09,15.20
2009,09,16,02,10,15.20
2009,09,16,02,11,15.20
2009,09,16,02,12,15.20
2009,09,16,02,13,15.20
2009,09,16,02,14,15.20
2009,09,16,02,15,15.20
2009,09,16,02,16,15.20
2009,09,16,02,17,15.20
2009,09,16,02,18,15.20
2009,09,16,02,19,15.20
2009,09,16,02,20,15.20
2009,09,16,02,21,15.30
2009,09,16,02,22,15.30
2009,09,16,02,23,15.30
2009,09,16,02,24,15.30
2009,09,16,02,25,15.30
2009,09,16,02,26,15.30
2009,09,16,02,27,15.30
2009,09,16,02,28,15.30
2009,09,16,02,29,15.30
2009,09,16,02,30,15.30
2009,09,16,02,31,15.30
2009,09,16,02,32,15.30
2009,09,16,02,33,15.30
2009,09,16,02,34,15.30
2009,09,16,02,36,15.30
2009,09,16,02,37,15.30
2009,09,16,02,38,15.30
2009,09,16,02,39,15.30
2009,09,16,02,40,15.30
2009,09,16,02,41,15.40
2009,09,16,02,42,15.30
2009,09,16,02,43,15.40
2009,09,16,02,44,15.40
2009,09,16,02,45,15.40
2009,09,16,02,46,15.40
2009,09,16,02,47,15.40
2009,09,16,02,48,15.40
2009,09,16,02,49,15.40
2009,09,16,02,50,15.40
2009,09,16,02,51,15.40
2009,09,16,02,52,15.40
2009,09,16,02,53,15.40
2009,09,16,02,54,15.40
2009,09,16,02,56,15.40
2009,09,16,02,57,15.40
2009,09,16,02,58,15.40
2009,09,16,02,59,15.40
2009,09,16,03,00,15.40
2009,09,16,03,01,15.40
2009,09,16,03,02,15.40
2009,09,16,03,03,15.40
2009,09,16,03,04,15.40
2009,09,16,03,06,15.40
2009,09,16,03,07,15.40
2009,09,16,03,08,15.40
2009,09,16,03,09,15.40
2009,09,16,03,10,15.40
2009,09,16,03,11,15.40
2009,09,16,03,12,15.40
2009,09,16,03,13,15.40
2009,09,16,03,14,15.40
2009,09,16,03,16,15.40
2009,09,16,03,17,15.40
2009,09,16,03,18,15.30
2009,09,16,03,19,15.30
2009,09,16,03,20,15.30
2009,09,16,03,21,15.30
2009,09,16,03,22,15.30
2009,09,16,03,23,15.30
2009,09,16,03,24,15.30
2009,09,16,03,25,15.30
2009,09,16,03,26,15.30
2009,09,16,03,33,15.20
2009,09,16,03,34,15.20
2009,09,16,03,36,15.10
2009,09,16,03,37,15.10
2009,09,16,03,38,15.10
2009,09,16,03,39,15.10
2009,09,16,03,40,15.10
2009,09,16,03,41,15.10
2009,09,16,03,42,15.00
2009,09,16,03,43,15.00
2009,09,16,03,44,15.00
2009,09,16,03,45,15.00
2009,09,16,03,46,15.00
2009,09,16,03,47,15.00
2009,09,16,03,48,15.00
2009,09,16,03,49,15.00
2009,09,16,03,50,15.00
2009,09,16,03,51,15.00
2009,09,16,03,52,15.00
2009,09,16,03,53,15.00
2009,09,16,03,54,15.00
2009,09,16,03,56,15.00
2009,09,16,03,57,15.00
2009,09,16,03,58,15.00
2009,09,16,03,59,15.00
2009,09,16,04,00,15.00
2009,09,16,04,01,15.00
2009,09,16,04,02,15.00
2009,09,16,04,03,15.00
2009,09,16,04,04,15.00
2009,09,16,04,05,15.00
2009,09,16,04,06,15.00
2009,09,16,04,07,14.90
2009,09,16,04,08,14.90
2009,09,16,04,09,14.90
2009,09,16,04,10,14.90
2009,09,16,04,11,14.90
2009,09,16,04,12,14.90
2009,09,16,04,13,14.90
2009,09,16,04,14,14.90
2009,09,16,04,15,14.90
2009,09,16,04,16,14.90
2009,09,16,04,17,14.90
2009,09,16,04,18,14.90
2009,09,16,04,19,14.90
2009,09,16,04,20,14.90
2009,09,16,04,21,14.90
2009,09,16,04,22,14.90
2009,09,16,04,23,14.90
2009,09,16,04,24,14.90
2009,09,16,04,25,14.90
2009,09,16,04,26,14.90
2009,09,16,04,27,14.90
2009,09,16,04,28,14.90
2009,09,16,04,29,14.90
2009,09,16,04,30,14.90
2009,09,16,04,31,14.90
2009,09,16,04,32,14.90
2009,09,16,04,33,14.90
2009,09,16,04,34,14.90
2009,09,16,04,35,14.90
2009,09,16,04,36,14.90
2009,09,16,04,37,14.90
2009,09,16,04,45,15.00
2009,09,16,04,46,15.00
2009,09,16,04,47,15.00
2009,09,16,04,48,15.00
2009,09,16,04,49,15.00
2009,09,16,04,50,15.00
2009,09,16,04,51,15.00
2009,09,16,04,52,15.00
2009,09,16,04,53,15.00
2009,09,16,04,54,15.00
2009,09,16,04,55,15.00
2009,09,16,04,56,15.00
2009,09,16,04,57,15.00
2009,09,16,04,58,15.00
2009,09,16,05,00,15.00
2009,09,16,05,01,15.00
2009,09,16,05,02,14.90
2009,09,16,05,03,14.90
2009,09,16,05,04,14.90
2009,09,16,05,05,14.90
2009,09,16,05,06,14.90
2009,09,16,05,07,14.90
2009,09,16,05,08,14.90
2009,09,16,05,09,14.80
2009,09,16,05,10,14.80
2009,09,16,05,11,14.80
2009,09,16,05,12,14.80
2009,09,16,05,13,14.80
2009,09,16,05,14,14.80
2009,09,16,05,15,14.80
2009,09,16,05,16,14.80
2009,09,16,05,17,14.80
2009,09,16,05,18,14.80
2009,09,16,05,19,14.80
2009,09,16,05,20,14.70
2009,09,16,05,21,14.70
2009,09,16,05,22,14.70
2009,09,16,05,23,14.70
2009,09,16,05,24,14.70
2009,09,16,05,25,14.70
2009,09,16,05,26,14.70
2009,09,16,05,27,14.70
2009,09,16,05,28,14.70
2009,09,16,05,29,14.70
2009,09,16,05,30,14.70
2009,09,16,05,31,14.70
2009,09,16,05,32,14.70
2009,09,16,05,33,14.70
2009,09,16,05,34,14.70
2009,09,16,05,35,14.70
2009,09,16,05,36,14.70
2009,09,16,05,37,14.70
2009,09,16,05,44,14.60
2009,09,16,05,45,14.60
2009,09,16,05,46,14.60
2009,09,16,05,47,14.60
2009,09,16,05,48,14.60
2009,09,16,05,49,14.60
2009,09,16,05,50,14.60
2009,09,16,05,51,14.60
2009,09,16,05,52,14.60
2009,09,16,05,53,14.60
2009,09,16,05,54,14.60
2009,09,16,05,55,14.60
2009,09,16,05,56,14.60
2009,09,16,05,57,14.60
2009,09,16,05,58,14.60
2009,09,16,05,59,14.60
2009,09,16,06,00,14.60
2009,09,16,06,01,14.60
2009,09,16,06,02,14.60
2009,09,16,06,03,14.60
2009,09,16,06,04,14.60
2009,09,16,06,05,14.60
2009,09,16,06,06,14.60
2009,09,16,06,07,14.60
2009,09,16,06,08,14.60
2009,09,16,06,09,14.60
2009,09,16,06,10,14.60
2009,09,16,06,11,14.60
2009,09,16,06,12,14.60
2009,09,16,06,13,14.60
2009,09,16,06,14,14.60
2009,09,16,06,15,14.60
2009,09,16,06,16,14.60
2009,09,16,06,17,14.60
2009,09,16,06,18,14.60
2009,09,16,06,19,14.60
2009,09,16,06,20,14.60
2009,09,16,06,21,14.60
2009,09,16,06,22,14.60
2009,09,16,06,23,14.60
2009,09,16,06,24,14.60
2009,09,16,06,25,14.60
2009,09,16,06,26,14.60
2009,09,16,06,27,14.70
2009,09,16,06,28,14.60
2009,09,16,06,29,14.60
2009,09,16,06,30,14.70
2009,09,16,06,31,14.70
2009,09,16,06,32,14.70
2009,09,16,06,33,14.60
2009,09,16,06,34,14.60
2009,09,16,06,35,14.60
2009,09,16,06,36,14.60
2009,09,16,06,37,14.60
2009,09,16,06,44,14.60
2009,09,16,06,45,14.60
2009,09,16,06,46,14.60
2009,09,16,06,47,14.60
2009,09,16,06,48,14.60
2009,09,16,06,49,14.50
2009,09,16,06,50,14.50
2009,09,16,06,51,14.50
2009,09,16,06,52,14.50
2009,09,16,06,53,14.50
2009,09,16,06,54,14.50
2009,09,16,06,55,14.40
2009,09,16,06,56,14.40
2009,09,16,06,57,14.40
2009,09,16,06,58,14.40
2009,09,16,07,00,14.40
2009,09,16,07,01,14.40
2009,09,16,07,02,14.40
2009,09,16,07,03,14.40
2009,09,16,07,04,14.40
2009,09,16,07,05,14.40
2009,09,16,07,06,14.40
2009,09,16,07,07,14.40
2009,09,16,07,08,14.50
2009,09,16,07,09,14.50
2009,09,16,07,10,14.50
2009,09,16,07,11,14.60
2009,09,16,07,12,14.60
2009,09,16,07,13,14.60
2009,09,16,07,14,14.70
2009,09,16,07,15,14.70
2009,09,16,07,16,14.70
2009,09,16,07,17,14.80
2009,09,16,07,18,14.80
2009,09,16,07,19,15.00
2009,09,16,07,20,15.00
2009,09,16,07,21,15.00
2009,09,16,07,22,15.20
2009,09,16,07,23,15.20
2009,09,16,07,24,15.30
2009,09,16,07,25,15.30
2009,09,16,07,26,15.40
2009,09,16,07,27,15.40
2009,09,16,07,28,15.40
2009,09,16,07,29,15.50
2009,09,16,07,30,15.50
2009,09,16,07,31,15.60
2009,09,16,07,32,15.60
2009,09,16,07,33,15.60
2009,09,16,07,34,15.50
2009,09,16,07,35,15.50
2009,09,16,07,36,15.50
2009,09,16,07,37,15.50
2009,09,16,07,44,15.40
2009,09,16,07,45,15.40
2009,09,16,07,46,15.30
2009,09,16,07,47,15.30
2009,09,16,07,48,15.30
2009,09,16,07,49,15.30
2009,09,16,07,50,15.30
2009,09,16,07,51,15.30
2009,09,16,07,52,15.30
2009,09,16,07,53,15.30
2009,09,16,07,54,15.30
2009,09,16,07,55,15.30
2009,09,16,07,56,15.30
2009,09,16,07,57,15.30
2009,09,16,07,58,15.40
2009,09,16,07,59,15.40
2009,09,16,08,00,15.50
2009,09,16,08,01,15.60
2009,09,16,08,02,15.70
2009,09,16,08,03,15.70
2009,09,16,08,04,15.80
2009,09,16,08,05,15.80
2009,09,16,08,06,15.90
2009,09,16,08,07,15.90
2009,09,16,08,08,15.90
2009,09,16,08,09,16.00
2009,09,16,08,10,15.90
2009,09,16,08,11,15.90
2009,09,16,08,12,15.90
2009,09,16,08,13,15.90
2009,09,16,08,14,15.90
2009,09,16,08,15,15.90
2009,09,16,08,16,15.80
2009,09,16,08,17,15.80
2009,09,16,08,18,15.80
2009,09,16,08,19,15.80
2009,09,16,08,20,15.70
2009,09,16,08,21,15.70
2009,09,16,08,22,15.70
2009,09,16,08,23,15.60
2009,09,16,08,24,15.60
2009,09,16,08,25,15.60
2009,09,16,08,26,15.60
2009,09,16,08,27,15.60
2009,09,16,08,28,15.60
2009,09,16,08,29,15.60
2009,09,16,08,30,15.60
2009,09,16,08,31,15.60
2009,09,16,08,32,15.60
2009,09,16,08,33,15.60
2009,09,16,08,34,15.60
2009,09,16,08,35,15.60
2009,09,16,08,36,15.60
2009,09,16,08,37,15.70
2009,09,16,08,44,15.80
2009,09,16,08,45,15.80
2009,09,16,08,46,15.80
2009,09,16,08,47,15.80
2009,09,16,08,48,15.80
2009,09,16,08,49,15.80
2009,09,16,08,50,15.80
2009,09,16,08,51,15.80
2009,09,16,08,52,15.70
2009,09,16,08,53,15.70
2009,09,16,08,54,15.70
2009,09,16,08,55,15.70
2009,09,16,08,56,15.70
2009,09,16,08,57,15.70
2009,09,16,08,58,15.70
2009,09,16,09,00,15.70
2009,09,16,09,01,15.70
2009,09,16,09,02,15.60
2009,09,16,09,03,15.60
2009,09,16,09,04,15.60
2009,09,16,09,05,15.60
2009,09,16,09,06,15.60
2009,09,16,09,07,15.60
2009,09,16,09,08,15.60
2009,09,16,09,09,15.60
2009,09,16,09,10,15.60
2009,09,16,09,11,15.60
2009,09,16,09,12,15.60
2009,09,16,09,13,15.60
2009,09,16,09,14,15.50
2009,09,16,09,15,15.50
2009,09,16,09,16,15.50
2009,09,16,09,17,15.50
2009,09,16,09,18,15.50
2009,09,16,09,19,15.50
2009,09,16,09,20,15.40
2009,09,16,09,21,15.50
2009,09,16,09,22,15.50
2009,09,16,09,23,15.50
2009,09,16,09,24,15.40
2009,09,16,09,25,15.40
2009,09,16,09,26,15.50
2009,09,16,09,27,15.50
2009,09,16,09,28,15.50
2009,09,16,09,29,15.60
2009,09,16,09,30,15.60
2009,09,16,09,31,15.60
2009,09,16,09,32,15.60
2009,09,16,09,33,15.60
2009,09,16,09,34,15.60
2009,09,16,09,35,15.60
2009,09,16,09,36,15.60
2009,09,16,09,37,15.60
2009,09,16,09,44,15.70
2009,09,16,09,45,15.70
2009,09,16,09,46,15.70
2009,09,16,09,47,15.60
2009,09,16,09,48,15.70
2009,09,16,09,49,15.60
2009,09,16,09,50,15.60
2009,09,16,09,51,15.60
2009,09,16,09,52,15.60
2009,09,16,09,53,15.60
2009,09,16,13,20,18.10
2009,09,16,13,21,18.10
2009,09,16,13,22,18.10
2009,09,16,13,23,18.10
2009,09,16,13,24,18.10
2009,09,16,13,25,18.00
2009,09,16,13,26,18.00
2009,09,16,13,27,18.10
2009,09,16,13,28,18.10
2009,09,16,13,29,18.10
2009,09,16,13,30,18.10
2009,09,16,13,31,18.10
2009,09,16,13,32,18.20
2009,09,16,13,33,18.20
2009,09,16,13,34,18.20
2009,09,16,13,35,18.20
2009,09,16,13,36,18.30
2009,09,16,13,37,18.30
2009,09,16,13,38,18.30
2009,09,16,13,39,18.30
2009,09,16,13,40,18.40
2009,09,16,13,41,18.40
2009,09,16,13,42,18.50
2009,09,16,13,43,18.50
2009,09,16,13,44,18.50
2009,09,16,13,45,18.60
2009,09,16,13,46,18.50
2009,09,16,13,47,18.60
2009,09,16,13,48,18.60
2009,09,16,13,49,18.60
2009,09,16,13,50,18.60
2009,09,16,13,51,18.50
2009,09,16,13,52,18.40
2009,09,16,13,53,18.40
2009,09,16,13,54,18.40
2009,09,16,13,55,18.30
2009,09,16,13,56,18.40
2009,09,16,13,57,18.50
2009,09,16,13,58,18.60
2009,09,16,13,59,18.60
2009,09,16,14,00,18.70
2009,09,16,14,01,18.70
2009,09,16,14,02,18.70
2009,09,16,14,03,18.70
2009,09,16,14,04,18.80
2009,09,16,14,05,18.80
2009,09,16,14,06,18.90
2009,09,16,14,07,18.90
2009,09,16,14,08,19.00
2009,09,16,14,09,19.00
2009,09,16,14,10,19.10
2009,09,16,14,11,19.10
2009,09,16,14,12,19.10
2009,09,16,14,13,19.10
2009,09,16,14,14,19.10
2009,09,16,14,15,19.10
2009,09,16,14,16,19.10
2009,09,16,14,17,19.20
2009,09,16,14,18,19.20
2009,09,16,14,19,19.20
2009,09,16,14,20,19.30
2009,09,16,14,21,19.30
2009,09,16,14,22,19.30
2009,09,16,14,23,19.30
2009,09,16,14,24,19.30
2009,09,16,14,25,19.30
2009,09,16,14,26,19.30
2009,09,16,14,27,19.30
2009,09,16,14,28,19.40
2009,09,16,14,29,19.50
2009,09,16,14,30,19.60
2009,09,16,14,31,19.70
2009,09,16,14,32,19.70
2009,09,16,14,33,19.70
2009,09,16,14,34,19.70
2009,09,16,14,35,19.70
2009,09,16,14,36,19.60
2009,09,16,14,37,19.60
2009,09,16,14,38,19.60
2009,09,16,14,39,19.70
2009,09,16,14,40,19.70
2009,09,16,14,41,19.70
2009,09,16,14,42,19.70
2009,09,16,14,43,19.70
2009,09,16,14,44,19.70
2009,09,16,14,45,19.60
2009,09,16,14,46,19.60
2009,09,16,14,47,19.60
2009,09,16,14,48,19.70
2009,09,16,14,49,19.70
2009,09,16,14,50,19.70
2009,09,16,14,51,19.70
2009,09,16,14,52,19.60
2009,09,16,14,53,19.60
2009,09,16,14,54,19.60
2009,09,16,14,55,19.60
2009,09,16,14,56,19.70
2009,09,16,14,57,19.60
2009,09,16,14,58,19.50
2009,09,16,14,59,19.40
2009,09,16,15,00,19.30
2009,09,16,15,01,19.30
2009,09,16,15,02,19.40
2009,09,16,15,03,19.40
2009,09,16,15,04,19.40
2009,09,16,15,05,19.30
2009,09,16,15,06,19.30
2009,09,16,15,07,19.20
2009,09,16,15,08,19.20
2009,09,16,15,09,19.20
2009,09,16,15,10,19.30
2009,09,16,15,11,19.30
2009,09,16,15,12,19.40
2009,09,16,15,13,19.40
2009,09,16,15,14,19.40
2009,09,16,15,15,19.40
2009,09,16,15,16,19.40
2009,09,16,15,17,19.40
2009,09,16,15,18,19.40
2009,09,16,15,19,19.30
2009,09,16,15,20,19.30
2009,09,16,15,21,19.30
2009,09,16,15,22,19.30
2009,09,16,15,23,19.40
2009,09,16,15,24,19.40
2009,09,16,15,25,19.50
2009,09,16,15,26,19.50
2009,09,16,15,27,19.60
2009,09,16,15,28,19.60
2009,09,16,15,29,19.60
2009,09,16,15,30,19.60
2009,09,16,15,31,19.50
2009,09,16,15,32,19.50
2009,09,16,15,33,19.50
2009,09,16,15,34,19.40
2009,09,16,15,35,19.40
2009,09,16,15,36,19.30
2009,09,16,15,37,19.30
2009,09,16,15,38,19.20
2009,09,16,15,39,19.10
2009,09,16,15,40,19.10
2009,09,16,15,41,19.00
2009,09,16,15,42,18.90
2009,09,16,15,43,18.90
2009,09,16,15,44,19.00
2009,09,16,15,45,19.00
2009,09,16,15,46,19.10
2009,09,16,15,47,19.10
2009,09,16,15,48,19.10
2009,09,16,15,49,19.10
2009,09,16,15,50,19.10
2009,09,16,15,51,19.10
2009,09,16,15,52,19.00
2009,09,16,15,53,18.90
2009,09,16,15,54,18.90
2009,09,16,15,55,18.90
2009,09,16,15,56,18.90
2009,09,16,15,57,19.00
2009,09,16,15,58,19.10
2009,09,16,15,59,19.10
2009,09,16,16,00,19.10
2009,09,16,16,01,19.20
2009,09,16,16,02,19.20
2009,09,16,16,03,19.20
2009,09,16,16,04,19.20
2009,09,16,16,05,19.20
2009,09,16,16,06,19.20
2009,09,16,16,07,19.20
2009,09,16,16,08,19.20
2009,09,16,16,09,19.20
2009,09,16,16,10,19.20
2009,09,16,16,11,19.20
2009,09,16,16,12,19.20
2009,09,16,16,13,19.20
2009,09,16,16,14,19.20
2009,09,16,16,15,19.10
2009,09,16,16,16,19.10
2009,09,16,16,17,19.00
2009,09,16,16,18,18.90
2009,09,16,16,19,18.90
2009,09,16,16,20,18.80
2009,09,16,16,21,18.80
2009,09,16,16,22,18.80
2009,09,16,16,23,18.80
2009,09,16,16,24,18.80
2009,09,16,16,25,18.70
2009,09,16,16,26,18.70
2009,09,16,16,27,18.70
2009,09,16,16,28,18.70
2009,09,16,16,29,18.70
2009,09,16,16,30,18.70
2009,09,16,16,31,18.70
2009,09,16,16,32,18.70
2009,09,16,16,33,18.60
2009,09,16,16,34,18.60
2009,09,16,16,35,18.40
2009,09,16,16,36,18.30
2009,09,16,16,37,18.30
2009,09,16,16,38,18.10
2009,09,16,16,39,18.10
2009,09,16,16,40,17.90
2009,09,16,16,41,17.80
2009,09,16,16,42,17.80
2009,09,16,16,43,17.70
2009,09,16,16,44,17.70
2009,09,16,16,45,17.60
2009,09,16,16,46,17.40
2009,09,16,16,47,17.40
2009,09,16,16,48,17.30
2009,09,16,16,49,17.30
2009,09,16,16,50,17.20
2009,09,16,16,51,17.10
2009,09,16,16,52,17.00
2009,09,16,16,53,16.90
2009,09,16,16,54,16.90
2009,09,16,16,55,16.80
2009,09,16,16,56,16.80
2009,09,16,16,57,16.80
2009,09,16,16,58,16.70
2009,09,16,16,59,16.60
2009,09,16,17,00,16.50
2009,09,16,17,01,16.40
2009,09,16,17,02,16.40
2009,09,16,17,03,16.30
2009,09,16,17,04,16.30
2009,09,16,17,05,16.20
2009,09,16,17,06,16.10
2009,09,16,17,07,16.10
2009,09,16,17,08,16.10
2009,09,16,17,09,16.00
2009,09,16,17,10,15.90
2009,09,16,17,11,15.90
2009,09,16,17,12,15.90
2009,09,16,17,13,15.90
2009,09,16,17,14,15.80
2009,09,16,17,15,15.80
2009,09,16,17,16,15.80
2009,09,16,17,17,15.80
2009,09,16,17,18,15.70
2009,09,16,17,19,15.70
2009,09,16,17,20,15.70
2009,09,16,17,21,15.60
2009,09,16,17,22,15.60
2009,09,16,17,23,15.50
2009,09,16,17,24,15.50
2009,09,16,17,25,15.50
2009,09,16,17,26,15.40
2009,09,16,17,27,15.40
2009,09,16,17,28,15.40
2009,09,16,17,29,15.40
2009,09,16,17,30,15.30
2009,09,16,17,31,15.30
2009,09,16,17,32,15.30
2009,09,16,17,33,15.30
2009,09,16,17,34,15.20
2009,09,16,17,35,15.20
2009,09,16,17,36,15.20
2009,09,16,17,37,15.20
2009,09,16,17,38,15.20
2009,09,16,17,39,15.20
2009,09,16,17,40,15.10
2009,09,16,17,41,15.20
2009,09,16,17,42,15.20
2009,09,16,17,43,15.20
2009,09,16,17,44,15.20
2009,09,16,17,45,15.20
2009,09,16,17,46,15.20
2009,09,16,17,47,15.20
2009,09,16,17,48,15.20
2009,09,16,17,49,15.20
2009,09,16,17,50,15.20
2009,09,16,17,51,15.20
2009,09,16,17,52,15.20
2009,09,16,17,53,15.20
2009,09,16,17,54,15.20
2009,09,16,17,55,15.20
2009,09,16,17,56,15.20
2009,09,16,17,57,15.20
2009,09,16,17,58,15.30
2009,09,16,17,59,15.30
2009,09,16,18,00,15.30
2009,09,16,18,01,15.30
2009,09,16,18,02,15.30
2009,09,16,18,03,15.30
2009,09,16,18,04,15.30
2009,09,16,18,05,15.30
2009,09,16,18,06,15.30
2009,09,16,18,07,15.30
2009,09,16,18,08,15.40
2009,09,16,18,09,15.40
2009,09,16,18,10,15.40
2009,09,16,18,11,15.40
2009,09,16,18,12,15.40
2009,09,16,18,13,15.40
2009,09,16,18,14,15.40
2009,09,16,18,15,15.40
2009,09,16,18,16,15.40
2009,09,16,18,17,15.40
2009,09,16,18,18,15.40
2009,09,16,18,19,15.40
2009,09,16,18,20,15.40
2009,09,16,18,21,15.50
2009,09,16,18,22,15.50
2009,09,16,18,23,15.40
2009,09,16,18,24,15.50
2009,09,16,18,25,15.50
2009,09,16,18,26,15.50
2009,09,16,18,27,15.50
2009,09,16,18,28,15.60
2009,09,16,18,29,15.60
2009,09,16,18,30,15.60
2009,09,16,18,31,15.60
2009,09,16,18,32,15.60
2009,09,16,18,33,15.60
2009,09,16,18,34,15.60
2009,09,16,18,35,15.60
2009,09,16,18,36,15.60
2009,09,16,18,37,15.60
2009,09,16,18,38,15.60
2009,09,16,18,39,15.60
2009,09,16,18,40,15.60
2009,09,16,18,41,15.60
2009,09,16,18,42,15.60
2009,09,16,18,43,15.50
2009,09,16,18,44,15.50
2009,09,16,18,45,15.40
2009,09,16,18,46,15.40
2009,09,16,18,47,15.40
2009,09,16,18,48,15.40
2009,09,16,18,49,15.40
2009,09,16,18,50,15.30
2009,09,16,18,51,15.30
2009,09,16,18,52,15.20
2009,09,16,18,53,15.20
2009,09,16,18,54,15.10
2009,09,16,18,55,15.10
2009,09,16,18,56,15.10
2009,09,16,18,57,15.00
2009,09,16,18,58,15.00
2009,09,16,18,59,15.00
2009,09,16,19,00,15.00
2009,09,16,19,01,15.00
2009,09,16,19,02,15.00
2009,09,16,19,03,15.00
2009,09,16,19,04,15.00
2009,09,16,19,05,14.90
2009,09,16,19,06,14.90
2009,09,16,19,07,14.90
2009,09,16,19,08,14.80
2009,09,16,19,09,14.80
2009,09,16,19,10,14.80
2009,09,16,19,11,14.80
2009,09,16,19,12,14.80
2009,09,16,19,13,14.80
2009,09,16,19,14,14.80
2009,09,16,19,15,14.70
2009,09,16,19,16,14.70
2009,09,16,19,17,14.70
2009,09,16,19,18,14.70
2009,09,16,19,19,14.70
2009,09,16,19,20,14.70
2009,09,16,19,21,14.70
2009,09,16,19,22,14.70
2009,09,16,19,23,14.70
2009,09,16,19,24,14.70
2009,09,16,19,25,14.70
2009,09,16,19,26,14.70
2009,09,16,19,27,14.70
2009,09,16,19,28,14.70
2009,09,16,19,29,14.70
2009,09,16,19,30,14.70
2009,09,16,19,31,14.60
2009,09,16,19,32,14.60
2009,09,16,19,33,14.60
2009,09,16,19,34,14.60
2009,09,16,19,35,14.60
2009,09,16,19,36,14.60
2009,09,16,19,37,14.60
2009,09,16,19,38,14.60
2009,09,16,19,39,14.60
2009,09,16,19,40,14.60
2009,09,16,19,41,14.60
2009,09,16,19,42,14.60
2009,09,16,19,43,14.50
2009,09,16,19,44,14.50
2009,09,16,19,45,14.50
2009,09,16,19,46,14.50
2009,09,16,19,47,14.50
2009,09,16,19,48,14.50
2009,09,16,19,49,14.40
2009,09,16,19,50,14.40
2009,09,16,19,51,14.40
2009,09,16,19,52,14.40
2009,09,16,19,53,14.40
2009,09,16,19,54,14.40
2009,09,16,19,55,14.40
2009,09,16,19,56,14.40
2009,09,16,19,57,14.40
2009,09,16,19,58,14.40
2009,09,16,19,59,14.40
2009,09,16,20,00,14.40
2009,09,16,20,01,14.40
2009,09,16,20,02,14.40
2009,09,16,20,03,14.40
2009,09,16,20,04,14.40
2009,09,16,20,05,14.40
2009,09,16,20,06,14.40
2009,09,16,20,07,14.40
2009,09,16,20,08,14.30
2009,09,16,20,09,14.30
2009,09,16,20,10,14.30
2009,09,16,20,11,14.30
2009,09,16,20,12,14.30
2009,09,16,20,13,14.30
2009,09,16,20,14,14.30
2009,09,16,20,15,14.30
2009,09,16,20,16,14.30
2009,09,16,20,17,14.30
2009,09,16,20,18,14.30
2009,09,16,20,19,14.30
2009,09,16,20,20,14.30
2009,09,16,20,21,14.30
2009,09,16,20,22,14.30
2009,09,16,20,23,14.30
2009,09,16,20,24,14.30
2009,09,16,20,25,14.30
2009,09,16,20,26,14.30
2009,09,16,20,27,14.30
2009,09,16,20,28,14.30
2009,09,16,20,29,14.30
2009,09,16,20,30,14.30
2009,09,16,20,31,14.30
2009,09,16,20,32,14.30
2009,09,16,20,33,14.20
2009,09,16,20,34,14.20
2009,09,16,20,35,14.20
2009,09,16,20,36,14.20
2009,09,16,20,37,14.20
2009,09,16,20,38,14.20
2009,09,16,20,39,14.10
2009,09,16,20,40,14.10
2009,09,16,20,41,14.10
2009,09,16,20,42,14.10
2009,09,16,20,43,14.10
2009,09,16,20,44,14.10
2009,09,16,20,45,14.10
2009,09,16,20,46,14.00
2009,09,16,20,47,14.00
2009,09,16,20,48,14.00
2009,09,16,20,49,14.00
2009,09,16,20,50,14.00
2009,09,16,20,51,14.00
2009,09,16,20,52,13.90
2009,09,16,20,53,13.90
2009,09,16,20,54,13.90
2009,09,16,20,55,13.90
2009,09,16,20,56,13.90
2009,09,16,20,57,13.90
2009,09,16,20,58,13.90
2009,09,16,20,59,13.90
2009,09,16,21,00,13.90
2009,09,16,21,01,13.80
2009,09,16,21,02,13.80
2009,09,16,21,03,13.80
2009,09,16,21,04,13.80
2009,09,16,21,05,13.80
2009,09,16,21,06,13.80
2009,09,16,21,07,13.80
2009,09,16,21,08,13.80
2009,09,16,21,09,13.80
2009,09,16,21,10,13.80
2009,09,16,21,11,13.80
2009,09,16,21,12,13.80
2009,09,16,21,13,13.80
2009,09,16,21,14,13.80
2009,09,16,21,15,13.80
2009,09,16,21,16,13.80
2009,09,16,21,17,13.80
2009,09,16,21,18,13.80
2009,09,16,21,19,13.70
2009,09,16,21,20,13.70
2009,09,16,21,21,13.70
2009,09,16,21,22,13.70
2009,09,16,21,23,13.70
2009,09,16,21,24,13.70
2009,09,16,21,25,13.70
2009,09,16,21,26,13.70
2009,09,16,21,27,13.60
2009,09,16,21,28,13.60
2009,09,16,21,29,13.60
2009,09,16,21,30,13.60
2009,09,16,21,31,13.60
2009,09,16,21,32,13.60
2009,09,16,21,33,13.60
2009,09,16,21,34,13.60
2009,09,16,21,35,13.60
2009,09,16,21,36,13.60
2009,09,16,21,37,13.60
2009,09,16,21,38,13.60